DW8935 Weather Reports


time (UTC)temp
F
wind
direction
speed
knots
gust
knots
rain 1hr
in
rain 24hr
in
rain mn
in
humidity
%
barometer
mb
20260906214537 53 313 0.9 6.1 0.00 0.00 0.00 90 1025.1
20260906213028 53 257 0.0 5.2 0.00 0.00 0.00 90 1025.0
20260906211538 53 271 0.9 5.2 0.00 0.00 0.00 90 1024.9
20260906210023 53 238 2.6 6.1 0.00 0.00 0.00 90 1024.5
20260906204529 53 244 3.5 7.8 0.00 0.00 0.00 89 1024.4
20260906203022 53 263 2.6 7.0 0.00 0.00 0.00 89 1024.0
20260906201521 53 269 0.9 6.1 0.00 0.00 0.00 89 1023.9
20260906200035 53 267 2.6 6.1 0.00 0.00 0.00 88 1023.7
20260906194518 53 288 1.7 5.2 0.00 0.00 0.00 88 1023.6
20260906193017 53 302 2.6 6.1 0.00 0.00 0.00 87 1023.4
20260906191528 53 242 0.9 5.2 0.00 0.00 0.00 86 1023.5
20260906190015 53 257 1.7 6.1 0.00 0.00 0.00 86 1023.5
20260906184512 53 267 1.7 5.2 0.00 0.00 0.00 84 1023.3
20260906183014 53 279 0.9 6.1 0.00 0.00 0.00 83 1023.0
20260906181535 53 246 0.9 6.1 0.00 0.00 0.00 82 1023.2
20260906180020 54 296 0.9 5.2 0.00 0.00 0.00 82 1022.8
20260906174509 54 281 1.7 6.1 0.00 0.00 0.00 82 1023.0
20260906173008 54 239 0.9 7.0 0.00 0.00 0.00 80 1022.9
20260906171505 55 239 2.6 7.0 0.00 0.00 0.00 79 1023.1
20260906170006 55 315 0.9 8.7 0.00 0.00 0.00 80 1023.0
20260906164502 55 267 0.9 7.8 0.00 0.00 0.00 80 1023.0
20260906163001 55 278 0.9 5.2 0.00 0.00 0.00 79 1023.1
20260906161502 55 286 0.9 6.1 0.00 0.00 0.00 79 1023.1
20260906160100 56 265 0.9 4.3 0.00 0.00 0.00 78 1023.2
20260906154559 56 265 0.0 5.2 0.00 0.00 0.00 76 1023.2
20260906153059 55 240 0.9 3.5 0.00 0.00 0.00 74 1023.4
20260906151604 55 223 1.7 6.1 0.00 0.00 0.00 75 1023.3
20260906150056 56 246 0.0 3.5 0.00 0.00 0.00 78 1023.1
20260906144609 56 259 0.0 4.3 0.00 0.00 0.00 79 1023.1
20260906143107 56 237 0.0 4.3 0.00 0.00 0.00 79 1023.2
20260906141554 56 278 0.0 5.2 0.00 0.00 0.00 79 1023.1
20260906140051 56 238 0.9 4.3 0.00 0.00 0.00 80 1023.0
20260906134552 56 277 2.6 6.1 0.00 0.00 0.00 81 1023.1
20260906133105 56 313 0.0 3.5 0.00 0.00 0.00 82 1023.3
20260906131551 56 271 0.0 5.2 0.00 0.00 0.00 82 1023.4
20260906124550 56 276 0.9 3.5 0.00 0.00 0.00 82 1023.5
20260906123050 57 291 0.0 2.6 0.00 0.00 0.00 82 1023.5
20260906121550 57 295 0.9 4.3 0.00 0.00 0.00 82 1023.6
20260906120050 57 260 0.0 6.1 0.00 0.00 0.00 81 1023.6
20260906114556 57 286 0.0 5.2 0.00 0.00 0.00 81 1023.6
20260906113048 57 278 0.0 5.2 0.00 0.00 0.00 81 1023.6
20260906111548 57 286 0.9 5.2 0.00 0.00 0.00 80 1023.6
20260906110116 57 267 0.0 3.5 0.00 0.00 0.00 79 1023.5
20260906104550 57 269 0.0 2.6 0.00 0.00 0.00 79 1023.3
20260906103042 57 250 0.0 3.5 0.00 0.00 0.00 79 1023.2
20260906101542 58 260 0.9 4.3 0.00 0.00 0.00 78 1023.1
20260906100041 58 254 0.9 4.3 0.00 0.00 0.00 78 1023.1
20260906094558 58 234 2.6 6.1 0.00 0.00 0.00 78 1023.0
20260906093057 58 246 0.9 6.1 0.00 0.00 0.00 77 1022.8
20260906091539 59 267 1.7 8.7 0.00 0.00 0.00 76 1022.7
20260906090038 59 273 0.9 4.3 0.00 0.00 0.00 74 1022.6
20260906084537 59 290 0.9 5.2 0.00 0.00 0.00 73 1022.4
20260906083045 59 242 0.0 2.6 0.00 0.00 0.00 73 1022.2
20260906081538 59 261 0.0 4.3 0.00 0.00 0.00 72 1022.1
20260906080040 60 242 0.0 4.3 0.00 0.00 0.00 72 1022.0
20260906074534 60 261 0.0 4.3 0.00 0.00 0.00 71 1021.8
20260906073031 60 236 1.7 7.0 0.00 0.00 0.00 70 1021.7
20260906071531 61 266 2.6 7.8 0.00 0.00 0.00 68 1021.7
20260906070030 61 288 0.9 5.2 0.00 0.00 0.00 66 1021.5
20260906064529 61 234 1.7 7.0 0.00 0.00 0.00 65 1021.5
20260906063031 62 227 1.7 8.7 0.00 0.00 0.00 64 1021.4
20260906061529 62 277 1.7 8.7 0.00 0.00 0.00 63 1021.4
20260906060028 62 259 5.2 12.2 0.00 0.00 0.00 64 1021.4
20260906054526 63 251 4.3 13.0 0.00 0.00 0.00 62 1021.2
20260906053025 63 233 2.6 13.0 0.00 0.00 0.00 62 1021.2
20260906051525 63 276 4.3 8.7 0.00 0.00 0.00 62 1021.1
20260906050025 65 237 3.5 10.4 0.00 0.00 0.00 62 1021.0
20260906044524 65 270 2.6 7.0 0.00 0.00 0.00 60 1020.8
20260906043024 64 269 0.0 5.2 0.00 0.00 0.00 60 1020.6
20260906041522 64 229 0.9 5.2 0.00 0.00 0.00 61 1020.7
20260906040028 65 300 0.0 8.7 0.00 0.00 0.00 59 1020.7
20260906034520 66 279 0.0 7.0 0.00 0.00 0.00 60 1020.7
20260906033025 64 222 3.5 8.7 0.00 0.00 0.00 61 1020.7
20260906031518 65 261 2.6 9.6 0.00 0.00 0.00 60 1020.9
20260906030015 64 296 2.6 8.7 0.00 0.00 0.00 63 1021.0
20260906024531 64 281 1.7 8.7 0.00 0.00 0.00 64 1021.1
20260906023018 63 238 2.6 9.6 0.00 0.00 0.00 68 1021.2
20260906021511 63 229 3.5 10.4 0.00 0.00 0.00 71 1021.4
20260906020008 62 247 1.7 7.0 0.00 0.00 0.00 74 1021.4
20260906014508 61 257 3.5 11.3 0.00 0.00 0.00 76 1021.5
20260906013008 60 176 4.3 9.6 0.00 0.00 0.00 78 1021.4
20260906011606 60 268 2.6 10.4 0.00 0.00 0.00 81 1021.5
20260906010058 59 277 2.6 9.6 0.00 0.00 0.00 84 1021.5
20260906004609 59 252 1.7 10.4 0.00 0.00 0.00 88 1021.5
20260906003110 58 290 3.5 7.8 0.00 0.00 0.00 93 1021.5
20260906001551 57 281 2.6 9.6 0.00 0.00 0.00 94 1021.4
20260906000048 56 254 1.7 7.0 0.00 0.00 0.00 94 1021.2
20260905234546 55 248 0.9 3.5 0.00 0.00 0.00 94 1021.2
20260905233048 55 252 0.9 5.2 0.00 0.00 0.00 94 1021.1
20260905231545 54 264 0.0 2.6 0.00 0.00 0.00 94 1021.0
20260905230042 54 265 0.9 4.3 0.00 0.00 0.00 94 1020.8
20260905224540 54 266 0.9 3.5 0.00 0.00 0.00 94 1020.5
20260905223040 54 291 0.9 3.5 0.00 0.00 0.00 94 1020.3
20260905221556 54 251 0.0 1.7 0.00 0.00 0.00 94 1020.0
20260905220036 53 290 0.0 3.5 0.00 0.00 0.00 94 1019.8